Regional Weather Roundup
Issued by NWS Northern Indiana

Home | Current Version | Previous Version | Graphics & Text | Print | Product List | Glossary On
Versions: 1 2 3 4 5 6 7 8 9 10 11 12 13 14 15 16 17 18 19 20 21 22 23 24 25 26 27 28 29 30 31 32 33 34 35 36 37 38 39 40 41 42 43 44 45 46 47 48 49 50
000
ASUS43 KIWX 150010
RWRIWX

KIWX WEATHER ROUNDUP
NATIONAL WEATHER SERVICE NORTHERN INDIANA
800 PM EDT SUN SEP 14 2014

NOTE: "FAIR" INDICATES FEW OR NO CLOUDS BELOW 12,000 FEET WITH NO
SIGNIFICANT WEATHER AND/OR OBSTRUCTIONS TO VISIBILITY.

* THESE STATIONS ARE NOT UNDER NWS QUALITY CONTROL. THEY ALSO MAY NOT
  REPORT WEATHER SUCH AS PRECIPITATION OR FOG.

INZ001>027-150100-
NORTHERN INDIANA

CITY           SKY/WX    TMP DP  RH WIND       PRES   REMARKS
GARY*          PTCLDY    61  48  63 S6        30.19S
VALPARAISO     CLEAR     58  47  66 CALM      30.20F
6HR MIN TEMP:  58; 6HR MAX TEMP:  65;

MICHIGAN CITY* CLEAR     54  46  76 CALM      30.20S
LAPORTE*       CLEAR     55  49  78 CALM      30.21S
6HR MIN TEMP:  55; 6HR MAX TEMP:  64;

KNOX*          CLEAR     58  48  68 CALM      30.20S
6HR MIN TEMP:  41; 6HR MAX TEMP:  89;

SOUTH BEND     CLEAR     61  45  55 S3        30.21S
6HR MIN TEMP:  59; 6HR MAX TEMP:  65;

GOSHEN         CLEAR     60  45  57 CALM      30.21S
6HR MIN TEMP:  59; 6HR MAX TEMP:  65;

MONTICELLO*    CLEAR     58  49  69 CALM      30.20S
6HR MIN TEMP:  58; 6HR MAX TEMP:  66;

LOGANSPORT*    CLEAR     55  45  67 CALM      30.21S
ROCHESTER*     CLEAR     61  46  59 CALM      30.22S
WARSAW*        CLEAR     59  46  63 CALM      30.21S
ANGOLA*        CLEAR     57  48  72 CALM      30.21S
FORT WAYNE     PTCLDY    57  49  74 CALM      30.21F
6HR MIN TEMP:  57; 6HR MAX TEMP:  67;

HUNTINGTON*    CLEAR     57  51  81 CALM      30.20F
6HR MIN TEMP:  57; 6HR MAX TEMP:  64;

PERU/GRISSOM   CLEAR     61  49  65 W5        30.21S
6HR MIN TEMP:  61; 6HR MAX TEMP:  67;

MARION*        CLEAR     59  46  63 CALM      30.21S
6HR MIN TEMP:  40; 6HR MAX TEMP:  90;


$$
INZ028>050-150100-
CENTRAL INDIANA

CITY           SKY/WX    TMP DP  RH WIND       PRES   REMARKS
LAFAYETTE      CLEAR     59  50  72 CALM      30.21R
6HR MIN TEMP:  59; 6HR MAX TEMP:  66;

KOKOMO*        CLEAR     61  46  59 NW5       30.21S
6HR MIN TEMP:  61; 6HR MAX TEMP:  70;

MUNCIE*        CLEAR     57  48  72 NW5       30.21R
6HR MIN TEMP:  57; 6HR MAX TEMP:  68;

INDIANAPOLIS   PTCLDY    62  45  53 S5        30.20S
6HR MIN TEMP:  62; 6HR MAX TEMP:  68;


$$
MIZ043>046-050>051-056>058-064>065-071>073-077>080-150100-
SOUTHWEST LOWER MICHIGAN

CITY           SKY/WX    TMP DP  RH WIND       PRES   REMARKS
BATTLE CREEK   CLEAR     56  43  61 SW5       30.21S
6HR MIN TEMP:  56; 6HR MAX TEMP:  63;

BENTON HARBOR  CLEAR     58  45  62 S3        30.19F
6HR MIN TEMP:  58; 6HR MAX TEMP:  63;

COLDWATER*     CLEAR     57  46  67 CALM      30.21S
6HR MIN TEMP:  56; 6HR MAX TEMP:  65;

HILLSDALE*     CLEAR     55  45  69 CALM      30.21S
6HR MIN TEMP:  55; 6HR MAX TEMP:  64;

HOLLAND        CLEAR     57  46  66 CALM      30.20S
6HR MIN TEMP:  57; 6HR MAX TEMP:  63;

GRAND RAPIDS   CLEAR     56  44  64 W7        30.20S
6HR MIN TEMP:  56; 6HR MAX TEMP:  64;

KALAMAZOO      CLEAR     57  44  62 SW5       30.21S
6HR MIN TEMP:  57; 6HR MAX TEMP:  64;

STURGIS*       CLEAR     55  46  71 CALM      30.21S
THREE RIVERS*  FAIR      57  47  67 CALM      30.21S

$$
OHZ001>008-015>018-024>025-150100-
NORTHWEST OHIO

CITY           SKY/WX    TMP DP  RH WIND       PRES   REMARKS
WAUSEON*       FAIR      55  50  82 CALM      30.21S
DEFIANCE       CLEAR     58  48  69 CALM      30.21S
6HR MIN TEMP:  58; 6HR MAX TEMP:  66;

FINDLAY        CLEAR     62  44  51 CALM      30.20S
6HR MIN TEMP:  62; 6HR MAX TEMP:  67;

TOLEDO EXPRESS CLEAR     55  48  77 CALM      30.21S
6HR MIN TEMP:  55; 6HR MAX TEMP:  65;

TOLEDO METCALF CLEAR     57  46  66 E5        30.22S
6HR MIN TEMP:  57; 6HR MAX TEMP:  65;

LIMA           CLEAR     58  50  75 CALM      30.21S
6HR MIN TEMP:  58; 6HR MAX TEMP:  67;


$$
&&


USA.gov is the U.S. government's official web portal to all federal, state and local government web resources and services.